Terug naar catalogus

KUIPER-00041

ActiefCommunicatieLEO
NORAD 64502·PAYLOAD·🇺🇸 United States

Gelanceerd Jun 23, 2025 vanaf Cape Canaveral Space Force Station

Loading…

Volgende Passages (komende 24 uur)

TLE

VersSource: CelesTrak SupGP

Epoch: Sep 14, 2026, 21:50 UTC

1 64502C 25134C   26257.91018519  .00003455  00000+0  45245-3 0  2574
2 64502  51.8974 128.8378 0000833 100.6753 298.1291 14.79914992    14

Volg KUIPER-00041 in realtime met AllMySat

Download on the App Store